sat.trackr.live / text

‹ back to catalog

STARLINK-30984

NORAD 58480 · 2023-186H

PAYLOAD ACTIVE UNKNOWN

§ Identity

Operator
Country
US
Launch date
2023-12-03
Launch site
AFETR
Launch vehicle
Mass (kg)
RCS (m²)

Purposes: comms

External: N2YO · Heavens-Above · Gunter

§ Orbital elements

Epoch: 2026-05-24T21:15:36.517248Z

Period
94.27 min
Inclination
43.0022°
Eccentricity
0.0000856
Mean motion
15.27576184 rev/d
Perigee alt
482.5 km
Apogee alt
483.6 km
Semi-major
6,861.2 km
B*
3.5365e-5
RAAN
352.9663°
Arg perigee
273.4738°
Mean anomaly
86.6015°
Rev number
13,755

§ Raw data

STARLINK-309841 58480U 23186H   26144.88583932  .00000711  00000+0  35365-4 0  99922 58480  43.0022 352.9663 0000856 273.4738  86.6015 15.27576184137558

JSON: /api/v1/satellites/58480 · /tle

For live sub-satellite position, see the globe view (requires WebGL).

§ Visibility from observer

Set your observer location to see the next 7 days of passes ≥ 10°. The values pass through the URL so the page stays shareable.

No JS? Fill the form by hand. The geolocation button needs JavaScript.